This is the latest recevied weather packets stored in our database for station/object WP3OF-5. If no packets are shown the sender has not sent any weather packets the latest 10 day(s).
| Time | Temp. | Humidity | Pressure | Rain* | Wind** | Luminosity | Snow |
|---|---|---|---|---|---|---|---|
| 1777996251 | 31.11° C | 59% | 1017.9 hPa | 0 mm | - | - | - |
| 1777995947 | 31.11° C | 55% | 1017.5 hPa | 0 mm | - | - | - |
| 1777995643 | 31.11° C | 57% | 1017.7 hPa | 0 mm | - | - | - |
| 1777995341 | 31.67° C | 55% | 1017.8 hPa | 0 mm | - | - | - |
| 1777995038 | 31.67° C | 55% | 1017.8 hPa | 0 mm | - | - | - |
| 1777994735 | 31.67° C | 57% | 1017.4 hPa | 0 mm | - | - | - |
| 1777994431 | 31.67° C | 59% | 1017.7 hPa | 0 mm | - | - | - |
| 1777994131 | 31.11° C | 56% | 1017.5 hPa | 0 mm | - | - | - |
| 1777993829 | 31.11° C | 58% | 1017.6 hPa | 0 mm | - | - | - |
| 1777993525 | 30.56° C | 58% | 1017.6 hPa | 0 mm | - | - | - |
| 1777993221 | 30.56° C | 60% | 1017.5 hPa | 0 mm | - | - | - |
| 1777992917 | 30° C | 62% | 1017.8 hPa | 0 mm | - | - | - |
| 1777992616 | 30.56° C | 60% | 1017.8 hPa | 0 mm | - | - | - |
| 1777992313 | 31.11° C | 58% | 1017.7 hPa | 0 mm | - | - | - |
| 1777992010 | 31.11° C | 58% | 1017.6 hPa | 0 mm | - | - | - |
| 1777991708 | 30.56° C | 58% | 1017.6 hPa | 0 mm | - | - | - |
| 1777991405 | 30.56° C | 60% | 1017.7 hPa | 0 mm | - | - | - |
| 1777991102 | 30.56° C | 59% | 1017.7 hPa | 0 mm | - | - | - |
| 1777990799 | 30.56° C | 57% | 1017.8 hPa | 0 mm | - | - | - |
| 1777990496 | 29.44° C | 62% | 1017.9 hPa | 0 mm | - | - | - |
| 1777989890 | 29.44° C | 62% | 1017.9 hPa | 0 mm | - | - | - |
| 1777989586 | 30° C | 62% | 1017.8 hPa | 0 mm | - | - | - |
| 1777989283 | 29.44° C | 62% | 1018.1 hPa | 0 mm | - | - | - |
| 1777988979 | 30° C | 62% | 1017.9 hPa | 0 mm | - | - | - |
| 1777988676 | 29.44° C | 63% | 1017.8 hPa | 0 mm | - | - | - |
* Rain latest hour (hover to see other rain measurements)
** Current wind speed in m/s (hover to see current wind gust speed)